Back to catalog

CZ-4 DEB

AliveSSO
NORAD 29509·DEBRIS·🇨🇳 China

Launched Oct 23, 2006 from Taiyuan Satellite Launch Center

Loading…

Next Passes (next 24 hours)

TLE

FreshSource: Space-Track

Epoch: Sep 14, 2026, 02:55 UTC

1 29509U 06046E   26257.12164664  .00001540  00000-0  10907-3 0  9993
2 29509  97.6272 313.1109 0034073 293.2342  66.5299 15.05892850 81874

Track CZ-4 DEB in real time with AllMySat

Download on the App Store